Погода в Пензе

Россия / Республика Башкортостан     54°26′45″N   55°19′01″E
темп.,
°C
ветер,
м/с
пор.,
м/с
влажн.,
%
обл.,
%
осадки,
мм/ч
давл.,
гПа
погр.,
м
1 июля, пт
пт123:00+12юз338684 2.5 100726
02:00+10юз22906 0.0 100827
05:00+9сз1191100 0.0 101011
08:00+12св238881 0.0 1010231
11:00+14юв2380100 0.1 1011528
14:00+18ююв466438 0.3 10121186
17:00+19юв346211 1.7 10121362
20:00+16вюв598123 1.0 1012233
2 июля, сб
сб223:00+12в11815 1.3 101311
02:00+11св22885 0.0 101313
05:00+10св22905 0.0 101319
08:00+14всв22805 0.0 1013177
11:00+19св33675 0.0 1013647
14:00+21всв22583 0.0 10121266
17:00+21всв22570 0.5 10121531
20:00+19ссв35770 0.4 1011107
3 июля, вс
вс323:00+14ссв33880 0.4 101139
02:00+13ссв339015 0.0 101131
05:00+12св229021 0.0 101016
08:00+16св238011 0.0 1010189
11:00+20св33665 0.0 1010588
14:00+22св325518 0.0 10091139
17:00+22с44625 0.6 10081365
20:00+18с488057 2.2 1007244
4 июля, пн
пн423:00+14с4994100 2.6 1008191
02:00+13с5109682 0.0 1007260
05:00+11с6109755 0.0 1007286
08:00+14ссв7119368 0.0 1007494
11:00+17св897555 0.0 10081074
14:00+17ссв7972100 0.1 10091268
17:00+18ссв797133 0.9 10091258
20:00+16ссв61174100 0.3 1011630
5 июля, вт
вт523:00+12с347485 0.3 101264
02:00+10ссз228699 0.0 101220
05:00+11ссз3981100 0.0 1013190
08:00+13с5880100 0.0 1013336
11:00+17св4663100 0.0 1014760
14:00+19ссв4560100 0.0 10131089
17:00+20с4561100 0.0 10131330
20:00+19ссв1178100 0.0 101325